| time (UTC) | temp C | wind direction | speed KPH | gust KPH | rain 1hr cm | rain 24hr cm | rain mn cm | humidity % | barometer mb |
| 20260509090106 | 8 | 173 | 0.0 | 4.8 | 0.00 | 0.00 | 0.00 | 99 | 1005.6 |
| 20260509084528 | 8 | 175 | 0.0 | 3.2 | 0.00 | 0.00 | 0.00 | 99 | 1005.7 |
| 20260509083051 | 7 | 178 | 0.0 | 0.0 | 0.00 | 0.00 | 0.00 | 98 | 1005.8 |
| 20260509081513 | 7 | 178 | 0.0 | 0.0 | 0.00 | 0.00 | 0.00 | 97 | 1005.8 |
| 20260509080028 | 7 | 178 | 0.0 | 0.0 | 0.00 | 0.00 | 0.00 | 97 | 1006.1 |
| 20260509074544 | 7 | 178 | 0.0 | 0.0 | 0.00 | 0.00 | 0.00 | 96 | 1006.2 |
| 20260509073042 | 7 | 178 | 0.0 | 0.0 | 0.00 | 0.00 | 0.00 | 95 | 1006.2 |
| 20260509071511 | 7 | 178 | 0.0 | 0.0 | 0.00 | 0.00 | 0.00 | 95 | 1006.5 |
| 20260509070029 | 7 | 178 | 0.0 | 0.0 | 0.00 | 0.00 | 0.00 | 94 | 1006.8 |
| 20260509064504 | 7 | 178 | 0.0 | 0.0 | 0.00 | 0.00 | 0.00 | 93 | 1006.8 |
| 20260509063020 | 8 | 178 | 0.0 | 0.0 | 0.00 | 0.00 | 0.00 | 92 | 1006.8 |
| 20260509061534 | 8 | 178 | 0.0 | 0.0 | 0.00 | 0.00 | 0.00 | 91 | 1006.9 |
| 20260509060105 | 8 | 168 | 0.0 | 0.0 | 0.00 | 0.00 | 0.00 | 89 | 1007.1 |
| 20260509054530 | 8 | 169 | 0.0 | 0.0 | 0.00 | 0.00 | 0.00 | 88 | 1007.3 |
| 20260509053101 | 8 | 169 | 0.0 | 0.0 | 0.00 | 0.00 | 0.00 | 88 | 1007.3 |
| 20260509051506 | 8 | 169 | 0.0 | 0.0 | 0.00 | 0.00 | 0.00 | 89 | 1007.3 |
| 20260509050100 | 7 | 168 | 0.0 | 1.6 | 0.00 | 0.00 | 0.00 | 90 | 1007.3 |
| 20260509050002 | 7 | 177 | 0.0 | 3.2 | 0.00 | 0.00 | 0.00 | 90 | 1007.2 |
| 20260509044552 | 7 | 179 | 0.0 | 3.2 | 0.00 | 0.00 | 0.00 | 91 | 1007.5 |
| 20260509043108 | 7 | 179 | 0.0 | 1.6 | 0.00 | 0.00 | 0.00 | 92 | 1007.5 |
| 20260509041508 | 7 | 179 | 0.0 | 0.0 | 0.00 | 0.00 | 0.00 | 91 | 1007.7 |
| 20260509040030 | 7 | 179 | 0.0 | 1.6 | 0.00 | 0.00 | 0.00 | 91 | 1007.8 |
| 20260509034546 | 7 | 186 | 0.0 | 0.0 | 0.00 | 0.00 | 0.00 | 90 | 1007.9 |
| 20260509033056 | 8 | 260 | 0.0 | 0.0 | 0.00 | 0.00 | 0.00 | 88 | 1008.1 |
| 20260509031552 | 8 | 260 | 0.0 | 0.0 | 0.00 | 0.00 | 0.00 | 86 | 1008.1 |
| 20260509030109 | 8 | 260 | 0.0 | 0.0 | 0.00 | 0.00 | 0.00 | 85 | 1008.3 |
| 20260509024514 | 8 | 260 | 0.0 | 0.0 | 0.00 | 0.00 | 0.00 | 84 | 1008.5 |
| 20260509023036 | 9 | 260 | 0.0 | 0.0 | 0.00 | 0.00 | 0.00 | 82 | 1008.6 |
| 20260509021505 | 10 | 260 | 0.0 | 0.0 | 0.00 | 0.00 | 0.00 | 80 | 1008.5 |
| 20260509020018 | 10 | 260 | 0.0 | 0.0 | 0.00 | 0.00 | 0.00 | 77 | 1008.7 |
| 20260509014557 | 11 | 260 | 0.0 | 0.0 | 0.00 | 0.00 | 0.00 | 74 | 1008.6 |
| 20260509013011 | 11 | 260 | 0.0 | 0.0 | 0.00 | 0.00 | 0.00 | 72 | 1008.5 |
| 20260509011516 | 12 | 260 | 0.0 | 0.0 | 0.00 | 0.00 | 0.00 | 70 | 1008.6 |
| 20260509010024 | 13 | 260 | 0.0 | 0.0 | 0.00 | 0.00 | 0.00 | 68 | 1008.5 |
| 20260509004606 | 14 | 260 | 0.0 | 0.0 | 0.00 | 0.00 | 0.00 | 67 | 1008.5 |
| 20260509003023 | 15 | 260 | 0.0 | 0.0 | 0.00 | 0.00 | 0.00 | 63 | 1008.5 |
| 20260509001554 | 15 | 260 | 0.0 | 0.0 | 0.00 | 0.00 | 0.00 | 62 | 1008.6 |
| 20260509000014 | 15 | 260 | 0.0 | 3.2 | 0.00 | 0.00 | 0.00 | 61 | 1008.7 |
| 20260508234546 | 16 | 225 | 0.0 | 3.2 | 0.00 | 0.00 | 0.00 | 61 | 1008.9 |
| 20260508233052 | 16 | 243 | 1.6 | 4.8 | 0.00 | 0.00 | 0.00 | 59 | 1008.9 |
| 20260508231528 | 16 | 260 | 3.2 | 6.4 | 0.00 | 0.00 | 0.00 | 58 | 1009.0 |
| 20260508230028 | 16 | 56 | 0.0 | 9.7 | 0.00 | 0.00 | 0.00 | 56 | 1008.9 |
| 20260508224635 | 17 | 227 | 1.6 | 11.3 | 0.00 | 0.00 | 0.00 | 52 | 1009.0 |
| 20260508223038 | 18 | 220 | 0.0 | 11.3 | 0.00 | 0.00 | 0.00 | 50 | 1009.0 |
| 20260508221555 | 18 | 171 | 1.6 | 17.7 | 0.00 | 0.00 | 0.00 | 48 | 1009.1 |
| 20260508220052 | 19 | 210 | 3.2 | 9.7 | 0.00 | 0.00 | 0.00 | 47 | 1009.1 |
| 20260508214515 | 19 | 259 | 1.6 | 11.3 | 0.00 | 0.00 | 0.00 | 43 | 1009.1 |
| 20260508213035 | 20 | 191 | 1.6 | 11.3 | 0.00 | 0.00 | 0.00 | 44 | 1009.1 |
| 20260508211513 | 20 | 205 | 1.6 | 11.3 | 0.00 | 0.00 | 0.00 | 43 | 1009.3 |
| 20260508210013 | 20 | 313 | 1.6 | 11.3 | 0.00 | 0.00 | 0.00 | 44 | 1009.4 |
| 20260508204542 | 20 | 275 | 1.6 | 14.5 | 0.00 | 0.00 | 0.00 | 42 | 1009.5 |
| 20260508203108 | 20 | 330 | 1.6 | 11.3 | 0.00 | 0.00 | 0.00 | 43 | 1009.8 |
| 20260508201517 | 20 | 265 | 3.2 | 14.5 | 0.00 | 0.00 | 0.00 | 45 | 1009.9 |
| 20260508200013 | 20 | 161 | 1.6 | 11.3 | 0.00 | 0.00 | 0.00 | 44 | 1010.0 |
| 20260508194541 | 20 | 9 | 1.6 | 12.9 | 0.00 | 0.00 | 0.00 | 43 | 1010.3 |
| 20260508193047 | 19 | 279 | 3.2 | 8.0 | 0.00 | 0.00 | 0.00 | 43 | 1010.6 |
| 20260508191511 | 20 | 243 | 3.2 | 12.9 | 0.00 | 0.00 | 0.00 | 44 | 1010.6 |
| 20260508190059 | 20 | 186 | 3.2 | 8.0 | 0.00 | 0.00 | 0.00 | 43 | 1010.8 |
| 20260508184520 | 19 | 255 | 3.2 | 11.3 | 0.00 | 0.00 | 0.00 | 43 | 1011.0 |
| 20260508183032 | 18 | 232 | 4.8 | 11.3 | 0.00 | 0.00 | 0.00 | 44 | 1011.1 |
| 20260508181555 | 17 | 265 | 4.8 | 14.5 | 0.00 | 0.00 | 0.00 | 45 | 1011.4 |
| 20260508180054 | 17 | 203 | 1.6 | 9.7 | 0.00 | 0.00 | 0.00 | 47 | 1011.5 |
| 20260508174505 | 17 | 252 | 3.2 | 9.7 | 0.00 | 0.00 | 0.00 | 47 | 1011.7 |
| 20260508173100 | 17 | 355 | 1.6 | 9.7 | 0.00 | 0.00 | 0.00 | 46 | 1011.9 |
| 20260508171504 | 17 | 283 | 3.2 | 9.7 | 0.00 | 0.00 | 0.00 | 47 | 1012.0 |
| 20260508170008 | 17 | 259 | 3.2 | 8.0 | 0.00 | 0.00 | 0.00 | 45 | 1012.1 |
| 20260508164519 | 17 | 193 | 3.2 | 11.3 | 0.00 | 0.00 | 0.00 | 44 | 1012.3 |
| 20260508163029 | 17 | 216 | 3.2 | 9.7 | 0.00 | 0.00 | 0.00 | 45 | 1012.4 |
| 20260508161527 | 17 | 256 | 1.6 | 8.0 | 0.00 | 0.00 | 0.00 | 52 | 1012.5 |
| 20260508160024 | 17 | 246 | 4.8 | 8.0 | 0.00 | 0.00 | 0.00 | 52 | 1012.6 |
| 20260508154528 | 16 | 152 | 1.6 | 6.4 | 0.00 | 0.00 | 0.00 | 51 | 1012.9 |
| 20260508153025 | 15 | 307 | 3.2 | 11.3 | 0.00 | 0.00 | 0.00 | 50 | 1012.6 |
| 20260508151531 | 15 | 103 | 4.8 | 11.3 | 0.00 | 0.00 | 0.00 | 58 | 1012.5 |
| 20260508150045 | 15 | 321 | 1.6 | 6.4 | 0.00 | 0.00 | 0.00 | 62 | 1012.7 |
| 20260508144529 | 15 | 327 | 1.6 | 6.4 | 0.00 | 0.00 | 0.00 | 60 | 1012.9 |
| 20260508143021 | 15 | 12 | 0.0 | 4.8 | 0.00 | 0.00 | 0.00 | 67 | 1013.0 |
| 20260508141533 | 13 | 30 | 0.0 | 4.8 | 0.00 | 0.00 | 0.00 | 72 | 1013.3 |
| 20260508140048 | 12 | 72 | 1.6 | 4.8 | 0.00 | 0.00 | 0.00 | 79 | 1013.4 |
| 20260508134516 | 11 | 109 | 1.6 | 4.8 | 0.00 | 0.00 | 0.00 | 84 | 1013.5 |
| 20260508133035 | 10 | 81 | 1.6 | 4.8 | 0.00 | 0.00 | 0.00 | 87 | 1013.5 |
| 20260508131511 | 9 | 78 | 0.0 | 3.2 | 0.00 | 0.00 | 0.00 | 94 | 1013.4 |
| 20260508130032 | 7 | 101 | 1.6 | 3.2 | 0.00 | 0.00 | 0.00 | 98 | 1013.7 |
| 20260508124506 | 6 | 94 | 0.0 | 3.2 | 0.00 | 0.00 | 0.00 | 100 | 1013.7 |
| 20260508123033 | 4 | 218 | 0.0 | 0.0 | 0.00 | 0.00 | 0.00 | 100 | 1013.9 |
| 20260508121505 | 3 | 225 | 0.0 | 0.0 | 0.00 | 0.00 | 0.00 | 100 | 1013.7 |
| 20260508120025 | 2 | 225 | 0.0 | 0.0 | 0.00 | 0.00 | 0.00 | 99 | 1013.6 |
| 20260508114558 | 1 | 225 | 0.0 | 0.0 | 0.00 | 0.00 | 0.00 | 99 | 1013.6 |
| 20260508114500 | 1 | 225 | 0.0 | 0.0 | 0.00 | 0.00 | 0.00 | 99 | 1013.5 |
| 20260508113022 | 1 | 225 | 0.0 | 0.0 | 0.00 | 0.00 | 0.00 | 99 | 1013.3 |
| 20260508111602 | 0 | 225 | 0.0 | 0.0 | 0.00 | 0.00 | 0.00 | 98 | 1013.2 |
| 20260508110020 | 0 | 225 | 0.0 | 0.0 | 0.00 | 0.00 | 0.00 | 98 | 1013.1 |
| 20260508104555 | 0 | 224 | 0.0 | 0.0 | 0.00 | 0.00 | 0.00 | 98 | 1012.9 |
| 20260508103021 | 1 | 225 | 0.0 | 0.0 | 0.00 | 0.00 | 0.00 | 98 | 1012.8 |
| 20260508101550 | 1 | 225 | 0.0 | 0.0 | 0.00 | 0.00 | 0.00 | 97 | 1012.9 |
| 20260508100010 | 1 | 225 | 0.0 | 0.0 | 0.00 | 0.00 | 0.00 | 97 | 1012.9 |
| 20260508094533 | 1 | 224 | 0.0 | 0.0 | 0.00 | 0.00 | 0.00 | 97 | 1012.8 |
| 20260508093038 | 1 | 224 | 0.0 | 0.0 | 0.00 | 0.00 | 0.00 | 97 | 1012.7 |
| 20260508091610 | 1 | 225 | 0.0 | 0.0 | 0.00 | 0.00 | 0.00 | 97 | 1012.8 |
| 20260508091504 | 1 | 225 | 0.0 | 0.0 | 0.00 | 0.00 | 0.00 | 97 | 1012.9 |